TimeAST,TemperatureF,Dew PointF,Humidity,Sea Level PressureIn,VisibilityMPH,Wind Direction,Wind SpeedMPH,Gust SpeedMPH,PrecipitationIn,Events,Conditions,WindDirDegrees,DateUTC
12:56 AM,81.0,73.9,79,29.99,10.0,Variable,3.5,-,N/A,,Scattered Clouds,0,2012-09-26 04:56:00
1:56 AM,80.1,73.9,81,29.97,10.0,South,3.5,-,N/A,,Scattered Clouds,190,2012-09-26 05:56:00
2:56 AM,79.0,73.9,84,29.95,10.0,Calm,Calm,-,N/A,,Scattered Clouds,0,2012-09-26 06:56:00
3:56 AM,79.0,75.0,88,29.95,10.0,SW,3.5,-,0.00,,Scattered Clouds,220,2012-09-26 07:56:00
4:56 AM,79.0,75.0,88,29.96,10.0,Calm,Calm,-,N/A,,Scattered Clouds,0,2012-09-26 08:56:00
5:56 AM,78.1,75.0,90,29.96,10.0,West,4.6,-,0.36,,Scattered Clouds,280,2012-09-26 09:56:00
6:56 AM,79.0,75.0,88,29.98,10.0,SW,3.5,-,N/A,,Scattered Clouds,230,2012-09-26 10:56:00
7:56 AM,80.1,75.0,85,29.99,10.0,SSW,3.5,-,N/A,,Scattered Clouds,200,2012-09-26 11:56:00
8:56 AM,82.9,75.9,79,30.01,10.0,SSE,3.5,-,N/A,,Scattered Clouds,150,2012-09-26 12:56:00
9:56 AM,81.0,73.9,79,30.01,10.0,SSE,5.8,-,N/A,,Mostly Cloudy,150,2012-09-26 13:56:00
10:56 AM,84.9,77.0,77,30.01,10.0,Calm,Calm,-,0.04,,Scattered Clouds,0,2012-09-26 14:56:00
11:56 AM,88.0,75.9,67,29.99,10.0,NE,8.1,-,N/A,,Scattered Clouds,50,2012-09-26 15:56:00
12:56 PM,88.0,73.9,63,29.96,10.0,ENE,10.4,18.4,N/A,,Scattered Clouds,60,2012-09-26 16:56:00
1:56 PM,88.0,75.0,65,29.94,10.0,ENE,11.5,-,N/A,,Scattered Clouds,60,2012-09-26 17:56:00
2:56 PM,88.0,73.9,63,29.93,10.0,NE,13.8,-,N/A,,Scattered Clouds,50,2012-09-26 18:56:00
3:56 PM,87.1,73.9,65,29.93,10.0,NE,11.5,18.4,N/A,,Scattered Clouds,50,2012-09-26 19:56:00
4:56 PM,86.0,73.0,65,29.94,10.0,NE,9.2,-,N/A,,Scattered Clouds,50,2012-09-26 20:56:00
5:56 PM,84.0,75.0,74,29.94,10.0,ENE,9.2,-,N/A,,Scattered Clouds,60,2012-09-26 21:56:00
6:56 PM,84.0,75.0,74,29.95,10.0,ENE,10.4,-,N/A,,Scattered Clouds,70,2012-09-26 22:56:00
7:56 PM,82.0,73.9,76,29.96,10.0,East,6.9,-,N/A,,Partly Cloudy,90,2012-09-26 23:56:00
8:56 PM,82.9,73.9,74,29.98,10.0,Calm,Calm,-,N/A,,Scattered Clouds,0,2012-09-27 00:56:00
9:56 PM,82.9,73.9,74,29.99,10.0,Calm,Calm,-,N/A,,Scattered Clouds,0,2012-09-27 01:56:00
10:56 PM,82.0,75.0,79,29.99,10.0,ESE,3.5,-,0.00,Rain,Light Rain,120,2012-09-27 02:56:00
11:56 PM,80.1,73.9,81,29.98,10.0,Calm,Calm,-,0.00,,Scattered Clouds,0,2012-09-27 03:56:00